GEFSNE_prec_meanprecacc_120.txt.gz
Total_Precipitation_Accumulation
1.94 2.06 2.20 2.29 2.18 1.91 1.80 1.74 1.64 1.43 1.25 1.15 1.03 0.87 0.95 1.02 1.21 1.04 0.93 0.93 0.73 0.55 0.48 0.49 0.54 0.52 0.53 0.56 0.65 0.77 0.91 1.00 0.98 0.81 0.68 0.58 0.51 0.47
1.76 1.89 1.90 1.95 2.13 2.08 1.88 1.82 1.71 1.53 1.37 1.19 1.12 0.98 1.10 1.05 1.18 0.99 1.00 1.10 0.83 0.64 0.54 0.51 0.50 0.45 0.40 0.36 0.34 0.33 0.38 0.46 0.60 0.65 0.60 0.54 0.51 0.50
1.38 1.51 1.65 1.88 2.17 2.20 2.14 2.00 1.85 1.66 1.39 1.24 1.05 0.93 1.17 1.25 1.23 1.08 1.05 1.01 0.84 0.75 0.63 0.57 0.53 0.47 0.42 0.37 0.33 0.29 0.26 0.27 0.30 0.37 0.41 0.42 0.43 0.45
1.13 1.25 1.41 1.69 2.03 2.25 2.34 2.22 2.05 1.89 1.71 1.54 1.23 0.96 1.04 1.32 1.47 1.39 1.16 1.01 0.93 0.90 0.79 0.68 0.62 0.54 0.47 0.44 0.40 0.35 0.31 0.28 0.26 0.28 0.31 0.37 0.43 0.45
1.13 1.19 1.23 1.42 1.60 1.82 2.01 2.13 2.11 2.09 2.01 1.75 1.48 1.21 1.10 1.19 1.42 1.45 1.33 1.28 1.13 1.10 1.10 0.97 0.84 0.75 0.63 0.53 0.48 0.42 0.35 0.32 0.31 0.30 0.30 0.33 0.38 0.44
0.94 1.04 1.12 1.16 1.30 1.43 1.55 1.74 1.95 2.16 2.21 2.06 1.80 1.49 1.34 1.19 1.26 1.42 1.50 1.42 1.33 1.19 1.17 1.09 1.07 1.00 0.89 0.73 0.58 0.51 0.48 0.46 0.44 0.42 0.39 0.38 0.37 0.38
0.87 0.87 0.93 0.94 0.99 1.15 1.20 1.41 1.73 1.99 2.10 2.15 2.02 1.73 1.47 1.28 1.06 1.12 1.37 1.57 1.55 1.48 1.48 1.28 1.16 1.05 0.98 0.94 0.85 0.71 0.62 0.57 0.54 0.53 0.52 0.49 0.48 0.48
0.85 0.85 0.86 0.81 0.78 0.82 0.94 1.06 1.35 1.57 1.70 1.75 1.76 1.61 1.42 1.28 1.21 1.16 1.20 1.32 1.40 1.33 1.34 1.42 1.37 1.24 1.15 1.06 1.08 1.09 0.97 0.86 0.78 0.73 0.70 0.66 0.65 0.65
0.87 0.90 0.86 0.81 0.84 0.84 0.82 0.81 0.90 1.09 1.30 1.48 1.49 1.40 1.45 1.36 1.27 1.18 1.18 1.17 1.15 1.27 1.33 1.37 1.37 1.30 1.26 1.25 1.28 1.19 1.10 1.00 0.91 0.85 0.82 0.77 0.72 0.68
0.84 0.80 0.86 0.86 0.89 0.94 0.85 0.88 0.83 0.84 0.95 0.99 1.12 1.33 1.46 1.60 1.55 1.43 1.43 1.37 1.28 1.32 1.33 1.30 1.22 1.17 1.13 1.12 1.18 1.07 0.98 0.91 0.90 0.88 0.82 0.76 0.70 0.66
0.83 0.82 0.90 0.92 1.04 1.06 0.96 1.00 0.95 0.91 0.90 1.00 1.09 1.20 1.28 1.39 1.50 1.48 1.44 1.40 1.31 1.25 1.21 1.15 1.08 1.08 1.08 1.01 0.97 0.98 0.89 0.84 0.79 0.76 0.76 0.74 0.71 0.73
0.97 0.96 1.13 1.07 1.02 0.95 0.92 1.05 1.03 0.88 0.79 0.84 0.90 0.97 1.01 1.11 1.22 1.22 1.31 1.37 1.29 1.19 1.02 0.97 1.00 1.01 1.03 0.94 0.87 0.84 0.81 0.82 0.78 0.73 0.69 0.70 0.77 0.77
1.06 1.02 0.94 1.05 0.98 0.89 0.87 0.92 1.05 0.92 0.84 0.86 0.87 0.88 0.89 0.93 0.98 1.04 1.13 1.21 1.23 1.13 1.00 0.99 0.98 0.96 0.86 0.75 0.74 0.74 0.72 0.71 0.73 0.75 0.77 0.76 0.77 0.76
1.02 0.93 0.82 1.04 0.98 0.88 0.79 0.80 0.92 0.96 0.95 0.98 0.96 0.89 0.82 0.80 0.79 0.85 0.94 1.02 1.09 1.09 1.06 1.02 0.98 0.92 0.87 0.76 0.67 0.66 0.69 0.69 0.69 0.69 0.69 0.82 0.86 0.87
0.87 0.88 0.89 0.91 0.83 0.79 0.86 0.87 0.87 0.89 0.97 1.02 0.90 0.75 0.68 0.67 0.71 0.80 0.92 1.01 1.07 1.04 0.98 0.97 0.98 1.00 0.97 0.85 0.74 0.68 0.69 0.66 0.64 0.63 0.63 0.66 0.71 0.82
0.68 0.71 0.75 0.71 0.69 0.73 0.79 0.86 0.89 0.92 0.93 0.88 0.76 0.63 0.60 0.62 0.64 0.67 0.79 0.92 1.06 1.08 1.06 1.08 1.07 1.07 1.09 0.96 0.84 0.77 0.74 0.69 0.66 0.68 0.68 0.65 0.63 0.66
0.74 0.68 0.69 0.69 0.67 0.66 0.70 0.72 0.73 0.72 0.73 0.71 0.67 0.65 0.64 0.63 0.60 0.60 0.65 0.69 0.72 0.76 0.83 0.93 1.06 1.16 1.14 1.09 1.03 0.88 0.84 0.80 0.77 0.80 0.80 0.75 0.65 0.59
0.99 1.01 1.00 0.94 0.84 0.73 0.63 0.55 0.51 0.53 0.57 0.62 0.63 0.61 0.59 0.60 0.61 0.61 0.64 0.67 0.64 0.59 0.60 0.68 0.83 1.05 1.17 1.11 0.98 0.91 0.90 0.84 0.82 0.86 0.86 0.81 0.68 0.62
1.04 1.06 1.03 0.88 0.73 0.65 0.54 0.41 0.34 0.35 0.42 0.44 0.49 0.52 0.51 0.51 0.54 0.56 0.55 0.59 0.60 0.57 0.57 0.61 0.68 0.79 0.89 0.84 0.77 0.72 0.76 0.81 0.87 0.88 0.87 0.79 0.68 0.65
0.75 0.74 0.65 0.56 0.48 0.39 0.35 0.30 0.24 0.26 0.32 0.33 0.37 0.39 0.39 0.41 0.44 0.49 0.50 0.49 0.51 0.49 0.48 0.50 0.53 0.56 0.59 0.63 0.61 0.58 0.60 0.66 0.71 0.69 0.67 0.70 0.70 0.76
0.43 0.36 0.29 0.24 0.21 0.18 0.19 0.19 0.17 0.18 0.22 0.27 0.29 0.30 0.30 0.32 0.36 0.39 0.43 0.46 0.45 0.44 0.43 0.40 0.40 0.48 0.52 0.59 0.60 0.47 0.46 0.57 0.62 0.59 0.60 0.66 0.68 0.66
0.20 0.18 0.14 0.10 0.10 0.09 0.09 0.10 0.10 0.13 0.16 0.20 0.21 0.23 0.26 0.26 0.28 0.31 0.34 0.36 0.36 0.33 0.33 0.35 0.39 0.46 0.49 0.51 0.50 0.43 0.40 0.47 0.61 0.72 0.65 0.61 0.55 0.50
0.16 0.14 0.10 0.09 0.07 0.07 0.09 0.11 0.12 0.13 0.14 0.17 0.18 0.19 0.21 0.24 0.25 0.28 0.30 0.31 0.33 0.33 0.30 0.31 0.35 0.40 0.43 0.44 0.47 0.50 0.50 0.50 0.53 0.61 0.67 0.74 0.62 0.45

GEFSNE_prec_meanprecacc_126.txt.gz
Total_Precipitation_Accumulation
1.97 2.09 2.23 2.31 2.21 1.94 1.85 1.80 1.72 1.52 1.33 1.22 1.10 0.93 1.01 1.10 1.28 1.11 1.00 0.96 0.74 0.56 0.50 0.52 0.56 0.56 0.59 0.63 0.74 0.86 1.01 1.10 1.09 0.94 0.79 0.69 0.61 0.55
1.79 1.92 1.93 1.98 2.15 2.10 1.91 1.87 1.76 1.60 1.45 1.27 1.19 1.04 1.17 1.12 1.24 1.06 1.07 1.15 0.85 0.65 0.56 0.54 0.52 0.47 0.44 0.41 0.38 0.39 0.44 0.52 0.66 0.71 0.67 0.63 0.60 0.58
1.40 1.52 1.67 1.91 2.19 2.21 2.16 2.03 1.89 1.71 1.46 1.32 1.11 1.01 1.26 1.34 1.30 1.16 1.12 1.07 0.87 0.78 0.65 0.59 0.56 0.50 0.45 0.40 0.36 0.32 0.30 0.31 0.35 0.42 0.45 0.47 0.49 0.52
1.14 1.26 1.43 1.72 2.06 2.27 2.35 2.26 2.09 1.92 1.75 1.59 1.27 1.03 1.12 1.42 1.55 1.46 1.23 1.09 0.98 0.93 0.81 0.71 0.65 0.57 0.50 0.46 0.42 0.38 0.34 0.32 0.30 0.31 0.35 0.39 0.46 0.50
1.15 1.20 1.25 1.44 1.63 1.85 2.03 2.16 2.15 2.11 2.05 1.79 1.51 1.25 1.15 1.26 1.49 1.50 1.40 1.36 1.18 1.12 1.12 0.98 0.86 0.77 0.65 0.55 0.51 0.44 0.37 0.34 0.33 0.32 0.32 0.35 0.41 0.46
0.95 1.04 1.13 1.17 1.32 1.46 1.58 1.76 1.97 2.20 2.26 2.10 1.84 1.52 1.38 1.24 1.33 1.48 1.55 1.47 1.37 1.22 1.20 1.11 1.08 1.02 0.91 0.75 0.61 0.53 0.50 0.48 0.46 0.43 0.41 0.40 0.38 0.40
0.87 0.87 0.93 0.95 1.01 1.18 1.23 1.44 1.76 2.02 2.13 2.19 2.08 1.78 1.51 1.31 1.11 1.18 1.42 1.61 1.58 1.51 1.52 1.31 1.20 1.07 0.99 0.96 0.87 0.74 0.64 0.60 0.56 0.55 0.54 0.52 0.50 0.50
0.86 0.86 0.87 0.81 0.79 0.85 0.98 1.09 1.38 1.59 1.73 1.80 1.82 1.67 1.47 1.33 1.27 1.22 1.25 1.36 1.44 1.36 1.37 1.44 1.40 1.28 1.19 1.07 1.10 1.11 0.99 0.88 0.80 0.75 0.72 0.68 0.67 0.67
0.89 0.91 0.87 0.82 0.85 0.86 0.87 0.87 0.93 1.11 1.32 1.52 1.53 1.44 1.50 1.41 1.32 1.22 1.22 1.21 1.20 1.31 1.36 1.41 1.41 1.34 1.29 1.28 1.31 1.21 1.12 1.02 0.93 0.86 0.82 0.78 0.73 0.68
0.86 0.82 0.88 0.88 0.90 0.96 0.88 0.94 0.90 0.88 0.96 1.01 1.16 1.36 1.50 1.64 1.60 1.49 1.49 1.42 1.32 1.38 1.39 1.35 1.27 1.21 1.15 1.15 1.21 1.09 1.00 0.93 0.91 0.89 0.83 0.77 0.70 0.66
0.85 0.84 0.92 0.95 1.06 1.08 0.99 1.04 1.00 0.97 0.93 1.03 1.12 1.23 1.32 1.42 1.54 1.53 1.49 1.46 1.35 1.29 1.27 1.21 1.13 1.14 1.13 1.05 1.01 1.00 0.90 0.85 0.81 0.79 0.78 0.75 0.73 0.75
0.98 0.97 1.16 1.10 1.05 0.98 0.95 1.09 1.07 0.92 0.84 0.88 0.93 1.00 1.05 1.15 1.25 1.26 1.35 1.41 1.34 1.23 1.06 1.03 1.04 1.06 1.09 1.00 0.92 0.88 0.84 0.84 0.80 0.75 0.72 0.74 0.81 0.81
1.07 1.03 0.96 1.09 1.01 0.92 0.90 0.95 1.09 0.96 0.88 0.89 0.90 0.91 0.93 0.96 1.01 1.07 1.16 1.24 1.28 1.16 1.02 1.02 1.03 1.00 0.90 0.79 0.79 0.79 0.76 0.74 0.75 0.78 0.80 0.80 0.83 0.81
1.03 0.94 0.85 1.08 1.02 0.92 0.82 0.84 0.96 1.01 1.00 1.01 0.98 0.92 0.86 0.83 0.81 0.87 0.96 1.05 1.12 1.11 1.08 1.04 1.00 0.96 0.91 0.80 0.70 0.69 0.72 0.72 0.72 0.71 0.71 0.85 0.90 0.92
0.88 0.90 0.92 0.96 0.89 0.83 0.90 0.91 0.91 0.93 1.01 1.04 0.93 0.77 0.71 0.70 0.74 0.83 0.94 1.03 1.09 1.06 1.00 0.99 1.00 1.03 1.01 0.88 0.77 0.71 0.71 0.68 0.66 0.65 0.65 0.68 0.73 0.84
0.69 0.73 0.77 0.75 0.75 0.78 0.83 0.90 0.93 0.95 0.95 0.90 0.78 0.65 0.63 0.65 0.67 0.70 0.81 0.94 1.08 1.09 1.07 1.10 1.09 1.10 1.12 1.00 0.88 0.81 0.78 0.73 0.68 0.70 0.70 0.67 0.65 0.67
0.76 0.70 0.72 0.72 0.71 0.71 0.74 0.75 0.77 0.76 0.76 0.73 0.69 0.67 0.67 0.66 0.64 0.64 0.68 0.72 0.75 0.78 0.85 0.95 1.09 1.19 1.18 1.15 1.07 0.92 0.89 0.85 0.82 0.85 0.84 0.77 0.67 0.61
1.02 1.03 1.03 0.97 0.87 0.77 0.68 0.59 0.55 0.56 0.59 0.64 0.66 0.63 0.61 0.63 0.66 0.67 0.69 0.70 0.67 0.62 0.63 0.71 0.86 1.09 1.22 1.17 1.05 0.97 0.96 0.90 0.87 0.92 0.93 0.86 0.71 0.64
1.08 1.09 1.07 0.92 0.77 0.70 0.59 0.46 0.39 0.39 0.45 0.47 0.51 0.54 0.53 0.53 0.58 0.61 0.59 0.62 0.63 0.59 0.60 0.64 0.72 0.83 0.93 0.89 0.83 0.78 0.81 0.88 0.94 0.95 0.94 0.87 0.74 0.69
0.80 0.79 0.70 0.62 0.54 0.45 0.42 0.37 0.30 0.32 0.37 0.38 0.40 0.41 0.41 0.44 0.47 0.53 0.53 0.51 0.53 0.51 0.50 0.52 0.56 0.59 0.64 0.67 0.66 0.63 0.65 0.72 0.81 0.80 0.76 0.79 0.77 0.82
0.47 0.42 0.35 0.30 0.29 0.26 0.26 0.26 0.24 0.25 0.28 0.32 0.33 0.32 0.32 0.35 0.38 0.42 0.45 0.48 0.46 0.46 0.46 0.42 0.42 0.50 0.55 0.64 0.64 0.50 0.50 0.62 0.70 0.71 0.71 0.77 0.76 0.71
0.25 0.24 0.21 0.18 0.19 0.18 0.19 0.19 0.19 0.20 0.22 0.25 0.25 0.26 0.28 0.29 0.31 0.34 0.37 0.38 0.37 0.34 0.35 0.37 0.41 0.47 0.50 0.54 0.53 0.45 0.42 0.50 0.65 0.79 0.74 0.70 0.64 0.56
0.20 0.21 0.19 0.19 0.19 0.19 0.20 0.21 0.23 0.23 0.21 0.23 0.23 0.21 0.24 0.27 0.28 0.30 0.32 0.32 0.34 0.34 0.31 0.32 0.36 0.41 0.44 0.45 0.48 0.51 0.52 0.51 0.55 0.63 0.70 0.77 0.66 0.49

GEFSNE_prec_meanprecacc_132.txt.gz
Total_Precipitation_Accumulation
1.98 2.10 2.24 2.32 2.22 1.96 1.86 1.81 1.74 1.54 1.35 1.25 1.11 0.94 1.04 1.14 1.33 1.16 1.04 1.00 0.77 0.58 0.52 0.53 0.58 0.59 0.63 0.68 0.80 0.94 1.12 1.22 1.19 1.02 0.87 0.79 0.73 0.65
1.80 1.93 1.94 1.99 2.16 2.11 1.92 1.88 1.77 1.61 1.47 1.30 1.22 1.07 1.22 1.17 1.30 1.12 1.12 1.19 0.88 0.68 0.57 0.55 0.54 0.49 0.46 0.44 0.42 0.42 0.48 0.59 0.74 0.77 0.73 0.69 0.68 0.67
1.40 1.53 1.68 1.92 2.20 2.22 2.17 2.04 1.90 1.72 1.47 1.34 1.15 1.06 1.33 1.43 1.36 1.21 1.17 1.13 0.91 0.82 0.68 0.61 0.58 0.52 0.47 0.42 0.39 0.35 0.33 0.34 0.39 0.46 0.50 0.51 0.55 0.60
1.15 1.27 1.44 1.73 2.07 2.28 2.36 2.26 2.10 1.93 1.76 1.61 1.30 1.06 1.16 1.48 1.61 1.53 1.29 1.13 1.01 0.96 0.84 0.72 0.66 0.59 0.51 0.48 0.45 0.41 0.37 0.34 0.32 0.34 0.39 0.44 0.51 0.55
1.16 1.21 1.27 1.46 1.65 1.86 2.05 2.17 2.15 2.12 2.06 1.81 1.52 1.27 1.20 1.31 1.54 1.55 1.47 1.41 1.22 1.16 1.15 1.01 0.88 0.79 0.68 0.58 0.53 0.47 0.41 0.37 0.35 0.35 0.35 0.39 0.45 0.50
0.96 1.05 1.15 1.19 1.35 1.48 1.59 1.77 1.98 2.21 2.27 2.11 1.85 1.54 1.41 1.29 1.38 1.53 1.60 1.53 1.44 1.27 1.24 1.14 1.11 1.04 0.94 0.79 0.65 0.57 0.54 0.52 0.49 0.46 0.44 0.42 0.41 0.42
0.88 0.88 0.94 0.97 1.03 1.20 1.24 1.45 1.77 2.04 2.14 2.20 2.09 1.79 1.53 1.35 1.14 1.23 1.48 1.67 1.65 1.56 1.56 1.35 1.21 1.08 1.00 0.97 0.90 0.77 0.67 0.62 0.59 0.57 0.56 0.54 0.52 0.51
0.87 0.86 0.88 0.83 0.81 0.87 0.99 1.11 1.40 1.61 1.74 1.81 1.84 1.69 1.49 1.35 1.30 1.26 1.31 1.44 1.49 1.38 1.41 1.48 1.43 1.30 1.20 1.08 1.11 1.13 1.02 0.90 0.81 0.77 0.74 0.70 0.69 0.69
0.89 0.92 0.88 0.83 0.87 0.88 0.89 0.89 0.95 1.12 1.33 1.53 1.56 1.47 1.52 1.43 1.35 1.25 1.26 1.26 1.25 1.35 1.40 1.45 1.44 1.36 1.30 1.29 1.32 1.22 1.14 1.04 0.94 0.88 0.85 0.80 0.75 0.71
0.87 0.83 0.89 0.90 0.93 0.99 0.92 0.97 0.92 0.89 0.98 1.03 1.17 1.38 1.52 1.67 1.63 1.53 1.53 1.46 1.37 1.43 1.43 1.39 1.31 1.24 1.17 1.16 1.22 1.10 1.01 0.96 0.94 0.91 0.85 0.79 0.74 0.70
0.85 0.85 0.92 0.96 1.09 1.13 1.04 1.09 1.03 0.99 0.95 1.05 1.14 1.25 1.34 1.46 1.58 1.60 1.56 1.52 1.39 1.32 1.31 1.25 1.16 1.18 1.16 1.07 1.01 1.01 0.91 0.86 0.83 0.82 0.81 0.77 0.76 0.80
0.99 0.98 1.16 1.11 1.08 1.03 1.01 1.15 1.11 0.95 0.87 0.90 0.95 1.02 1.07 1.18 1.30 1.32 1.43 1.49 1.40 1.26 1.11 1.07 1.08 1.10 1.12 1.04 0.94 0.89 0.85 0.85 0.82 0.78 0.76 0.77 0.84 0.83
1.08 1.04 0.97 1.10 1.04 0.96 0.96 1.01 1.14 1.00 0.92 0.95 0.95 0.94 0.96 1.00 1.05 1.11 1.21 1.31 1.35 1.21 1.06 1.07 1.06 1.04 0.94 0.83 0.81 0.81 0.78 0.76 0.77 0.79 0.82 0.83 0.86 0.84
1.06 0.95 0.85 1.09 1.05 0.95 0.86 0.88 1.01 1.06 1.05 1.07 1.06 0.98 0.90 0.87 0.86 0.92 1.01 1.11 1.18 1.18 1.13 1.09 1.05 1.01 0.95 0.83 0.73 0.71 0.74 0.75 0.75 0.74 0.74 0.88 0.93 0.97
0.91 0.92 0.94 0.98 0.90 0.86 0.93 0.95 0.96 0.97 1.06 1.10 0.99 0.85 0.78 0.75 0.80 0.90 1.01 1.11 1.17 1.13 1.07 1.04 1.05 1.08 1.06 0.93 0.81 0.74 0.73 0.70 0.69 0.68 0.68 0.71 0.77 0.88
0.72 0.76 0.79 0.77 0.77 0.80 0.86 0.95 0.97 1.00 1.01 0.96 0.84 0.71 0.71 0.75 0.75 0.78 0.90 1.03 1.16 1.16 1.13 1.15 1.14 1.14 1.16 1.03 0.91 0.84 0.81 0.75 0.70 0.72 0.72 0.70 0.68 0.70
0.80 0.73 0.74 0.74 0.73 0.73 0.78 0.81 0.83 0.81 0.82 0.80 0.75 0.73 0.74 0.75 0.74 0.72 0.77 0.81 0.84 0.85 0.90 0.99 1.13 1.24 1.22 1.18 1.11 0.96 0.93 0.91 0.87 0.88 0.87 0.80 0.69 0.63
1.06 1.07 1.06 0.99 0.90 0.80 0.73 0.66 0.63 0.64 0.66 0.71 0.73 0.70 0.68 0.71 0.75 0.75 0.77 0.79 0.76 0.70 0.69 0.74 0.90 1.14 1.27 1.21 1.09 1.01 0.99 0.94 0.91 0.96 0.95 0.88 0.73 0.66
1.11 1.12 1.10 0.95 0.81 0.74 0.64 0.54 0.48 0.49 0.54 0.55 0.58 0.61 0.60 0.61 0.66 0.70 0.69 0.72 0.72 0.68 0.67 0.68 0.75 0.86 0.97 0.92 0.85 0.81 0.85 0.92 0.98 0.99 0.97 0.90 0.76 0.70
0.82 0.82 0.74 0.66 0.59 0.50 0.47 0.44 0.39 0.42 0.48 0.48 0.49 0.49 0.48 0.51 0.54 0.61 0.62 0.60 0.61 0.59 0.58 0.59 0.60 0.61 0.66 0.70 0.68 0.66 0.69 0.77 0.84 0.82 0.79 0.83 0.81 0.86
0.50 0.45 0.38 0.35 0.35 0.32 0.32 0.33 0.32 0.33 0.38 0.43 0.45 0.43 0.40 0.42 0.45 0.49 0.54 0.58 0.55 0.52 0.52 0.49 0.47 0.55 0.59 0.67 0.67 0.53 0.53 0.66 0.73 0.74 0.74 0.81 0.82 0.76
0.27 0.27 0.24 0.23 0.25 0.24 0.25 0.26 0.26 0.29 0.31 0.35 0.38 0.40 0.39 0.37 0.39 0.41 0.44 0.46 0.45 0.41 0.40 0.42 0.46 0.52 0.54 0.58 0.57 0.49 0.45 0.52 0.68 0.84 0.80 0.76 0.71 0.63
0.22 0.23 0.22 0.22 0.24 0.24 0.26 0.28 0.30 0.31 0.31 0.33 0.34 0.35 0.38 0.38 0.38 0.39 0.41 0.40 0.41 0.40 0.36 0.36 0.40 0.45 0.48 0.50 0.53 0.55 0.55 0.54 0.57 0.67 0.75 0.84 0.74 0.56

GEFSNE_prec_meanprecacc_138.txt.gz
Total_Precipitation_Accumulation
1.98 2.10 2.24 2.33 2.22 1.97 1.87 1.83 1.75 1.56 1.36 1.27 1.13 0.96 1.06 1.16 1.34 1.17 1.05 1.01 0.79 0.60 0.55 0.57 0.63 0.65 0.71 0.75 0.89 1.07 1.28 1.37 1.32 1.13 0.99 0.92 0.85 0.76
1.80 1.93 1.94 1.99 2.17 2.12 1.93 1.88 1.78 1.62 1.48 1.31 1.23 1.10 1.24 1.18 1.31 1.13 1.14 1.21 0.90 0.70 0.60 0.58 0.57 0.53 0.50 0.48 0.46 0.48 0.56 0.68 0.82 0.86 0.82 0.78 0.77 0.75
1.40 1.53 1.68 1.93 2.21 2.23 2.17 2.04 1.90 1.73 1.48 1.34 1.16 1.08 1.36 1.44 1.37 1.23 1.19 1.15 0.93 0.83 0.70 0.63 0.60 0.55 0.50 0.45 0.42 0.38 0.37 0.40 0.45 0.51 0.55 0.57 0.62 0.66
1.15 1.27 1.44 1.74 2.07 2.29 2.37 2.27 2.11 1.93 1.77 1.61 1.30 1.07 1.18 1.49 1.63 1.57 1.33 1.15 1.03 0.98 0.86 0.74 0.68 0.61 0.54 0.51 0.48 0.45 0.40 0.38 0.37 0.39 0.42 0.48 0.57 0.62
1.16 1.21 1.27 1.46 1.66 1.87 2.05 2.18 2.16 2.13 2.07 1.82 1.53 1.27 1.21 1.33 1.57 1.59 1.52 1.45 1.24 1.18 1.19 1.06 0.93 0.82 0.71 0.61 0.58 0.53 0.46 0.41 0.39 0.38 0.38 0.42 0.49 0.55
0.96 1.05 1.15 1.20 1.35 1.49 1.60 1.79 2.00 2.22 2.28 2.12 1.86 1.54 1.42 1.30 1.40 1.55 1.63 1.56 1.46 1.30 1.28 1.18 1.16 1.09 0.97 0.81 0.67 0.59 0.58 0.57 0.54 0.50 0.47 0.45 0.43 0.45
0.88 0.88 0.95 0.97 1.03 1.21 1.26 1.47 1.79 2.05 2.16 2.22 2.10 1.79 1.54 1.36 1.16 1.25 1.49 1.70 1.68 1.60 1.60 1.38 1.25 1.12 1.03 1.00 0.93 0.80 0.71 0.66 0.63 0.62 0.61 0.58 0.56 0.54
0.87 0.87 0.89 0.83 0.81 0.87 1.01 1.13 1.43 1.64 1.77 1.83 1.86 1.70 1.49 1.36 1.31 1.27 1.33 1.47 1.52 1.41 1.43 1.51 1.45 1.31 1.21 1.10 1.12 1.16 1.08 0.96 0.87 0.82 0.79 0.75 0.74 0.74
0.90 0.92 0.88 0.84 0.88 0.89 0.91 0.92 0.99 1.16 1.37 1.56 1.58 1.48 1.53 1.44 1.37 1.27 1.28 1.29 1.28 1.37 1.43 1.48 1.47 1.37 1.31 1.30 1.33 1.23 1.17 1.09 1.01 0.95 0.91 0.85 0.79 0.74
0.87 0.83 0.89 0.91 0.93 1.00 0.93 1.00 0.95 0.93 1.02 1.07 1.20 1.39 1.53 1.68 1.65 1.54 1.55 1.49 1.41 1.49 1.49 1.44 1.35 1.27 1.19 1.17 1.23 1.11 1.03 0.99 0.97 0.94 0.89 0.84 0.77 0.72
0.86 0.85 0.93 0.97 1.10 1.15 1.05 1.10 1.06 1.02 0.99 1.10 1.19 1.28 1.36 1.48 1.61 1.62 1.59 1.56 1.44 1.38 1.38 1.31 1.21 1.22 1.20 1.09 1.03 1.02 0.93 0.88 0.86 0.84 0.83 0.80 0.79 0.83
0.99 0.98 1.17 1.12 1.09 1.04 1.02 1.16 1.13 0.98 0.91 0.96 1.01 1.07 1.10 1.20 1.32 1.35 1.46 1.52 1.43 1.30 1.15 1.11 1.12 1.14 1.17 1.08 0.97 0.90 0.86 0.87 0.83 0.80 0.78 0.79 0.86 0.86
1.08 1.05 0.98 1.11 1.05 0.97 0.97 1.02 1.16 1.03 0.96 1.00 1.00 1.00 1.01 1.03 1.08 1.14 1.25 1.35 1.38 1.24 1.08 1.10 1.10 1.08 0.98 0.87 0.87 0.84 0.80 0.77 0.78 0.81 0.84 0.85 0.89 0.87
1.06 0.97 0.87 1.10 1.06 0.96 0.88 0.90 1.04 1.10 1.09 1.12 1.11 1.03 0.94 0.91 0.89 0.95 1.04 1.15 1.23 1.21 1.16 1.12 1.09 1.05 1.00 0.88 0.78 0.77 0.77 0.76 0.76 0.75 0.75 0.90 0.95 1.00
0.92 0.94 0.95 0.99 0.91 0.87 0.94 0.97 0.99 1.01 1.09 1.14 1.04 0.89 0.82 0.79 0.84 0.94 1.06 1.15 1.22 1.19 1.12 1.09 1.09 1.12 1.11 0.98 0.86 0.79 0.79 0.75 0.71 0.70 0.70 0.73 0.79 0.90
0.73 0.77 0.81 0.78 0.77 0.81 0.87 0.96 1.01 1.06 1.07 1.01 0.90 0.77 0.76 0.80 0.80 0.83 0.95 1.09 1.22 1.22 1.20 1.22 1.22 1.21 1.21 1.07 0.96 0.89 0.87 0.81 0.75 0.75 0.75 0.72 0.70 0.72
0.80 0.73 0.75 0.75 0.74 0.74 0.79 0.83 0.86 0.86 0.88 0.86 0.83 0.82 0.80 0.81 0.79 0.77 0.82 0.88 0.91 0.92 0.97 1.07 1.23 1.33 1.30 1.25 1.16 1.00 0.98 0.96 0.93 0.93 0.91 0.83 0.72 0.66
1.07 1.07 1.07 1.01 0.92 0.82 0.74 0.68 0.66 0.67 0.70 0.76 0.78 0.76 0.75 0.76 0.80 0.81 0.83 0.86 0.84 0.78 0.76 0.81 0.98 1.24 1.38 1.31 1.16 1.06 1.04 0.98 0.96 1.02 1.01 0.92 0.77 0.69
1.12 1.13 1.11 0.97 0.83 0.76 0.66 0.55 0.50 0.52 0.59 0.60 0.64 0.67 0.66 0.67 0.72 0.76 0.77 0.81 0.81 0.77 0.76 0.76 0.82 0.95 1.07 1.01 0.93 0.86 0.89 0.95 1.02 1.04 1.02 0.93 0.78 0.72
0.83 0.82 0.75 0.67 0.60 0.51 0.48 0.45 0.41 0.45 0.53 0.54 0.55 0.55 0.54 0.57 0.60 0.67 0.70 0.70 0.73 0.72 0.70 0.70 0.68 0.70 0.75 0.77 0.74 0.71 0.73 0.81 0.88 0.86 0.83 0.86 0.84 0.89
0.51 0.46 0.39 0.36 0.36 0.34 0.34 0.35 0.35 0.38 0.43 0.50 0.52 0.49 0.47 0.48 0.51 0.55 0.61 0.68 0.68 0.67 0.67 0.61 0.57 0.64 0.68 0.77 0.75 0.59 0.57 0.70 0.77 0.77 0.78 0.84 0.85 0.80
0.28 0.27 0.25 0.24 0.26 0.26 0.27 0.28 0.30 0.33 0.37 0.42 0.44 0.47 0.46 0.44 0.45 0.48 0.52 0.55 0.55 0.53 0.53 0.55 0.57 0.62 0.64 0.67 0.65 0.56 0.51 0.57 0.72 0.88 0.83 0.79 0.73 0.65
0.23 0.24 0.23 0.23 0.25 0.26 0.28 0.30 0.34 0.36 0.36 0.41 0.41 0.43 0.46 0.47 0.45 0.46 0.48 0.48 0.49 0.50 0.48 0.49 0.53 0.56 0.58 0.59 0.61 0.62 0.62 0.60 0.62 0.71 0.79 0.87 0.76 0.58